Location: Quedlinburg
(51.7921°N, 11.1414°E)
Time: 14:04:32
(UTC+02:00)

RS-15 - Pass Details

Date: 12 March 2026
Orbit: 1893 x 2152 km, 64.8° (Epoch: 22 April)

Event Time Altitude Azimuth Distance (km) Brightness Sun altitude
Rises 01:18:56 0° 282° (WNW) 5,300 10.3 -40.3°
Reaches altitude 10° 01:22:29 10° 289° (WNW) 4,323 9.8 -40.2°
Maximum altitude 01:32:55 43° 359° (N) 2,591 8.8 -39.6°
Drops below altitude 10° 01:43:49 10° 69° (ENE) 4,506 10.3 -38.9°
Sets 01:47:36 0° 77° (ENE) 5,542 10.9 -38.6°
